Stations météo

réclame
Mon MeteoGroup
Gotska sandoen, Suède (2589): Température de l'air & dewpoint: 17.05.2018 20:00:00 - 23.05.2018 20:00:00 (CEST)Gotska sandoen, Suède (2589): Vitesse du vent & gusts: 17.05.2018 20:00:00 - 23.05.2018 20:00:00 (CEST)Gotska sandoen, Suède (2589): Direction du vent: 17.05.2018 20:00:00 - 23.05.2018 20:00:00 (CEST)Gotska sandoen, Suède (2589): reduced air pressure: 17.05.2018 20:00:00 - 23.05.2018 20:00:00 (CEST)Gotska sandoen, Suède (2589): visibility: 17.05.2018 20:00:00 - 23.05.2018 20:00:00 (CEST)Gotska sandoen, Suède (2589): Quantités de précipitations: 17.05.2018 20:00:00 - 23.05.2018 20:00:00 (CEST)
Date & Time tt [°C] td [°C] ff [km/h] ff [knt] fx [km/h] fx [knt] dd ppp [hPa] vv [km] rr [mm]
23.05.2018 20:00:00 11,0 8,1 10 6 24 13 NNE 1026,7 50 0,0
23.05.2018 19:00:00 11,9 7,8 11 6 26 14 NNE 1026,3 50 0,0
23.05.2018 18:00:00 13,4 8,2 8 5 24 13 N 1026,0 50 0,0
23.05.2018 17:00:00 14,4 10,4 9 5 21 11 NE 1025,9 38 0,0
23.05.2018 16:00:00 16,3 10,6 9 5 23 12 ENE 1025,5 40 0,0
23.05.2018 15:00:00 18,7 12,0 10 5 16 9 NNE 1024,9 44 0,0
23.05.2018 14:00:00 17,9 11,2 8 5 23 12 NNW 1024,7 44 0,0
23.05.2018 13:00:00 19,0 11,3 11 6 25 14 WNW 1024,2 45 0,0
23.05.2018 12:00:00 18,9 9,9 16 9 28 15 WSW 1023,2 40 0,0
23.05.2018 11:00:00 16,5 10,6 16 9 26 14 SW 1022,7 31 0,0
23.05.2018 10:00:00 16,9 10,5 10 6 20 11 SW 1022,4 27 0,0
23.05.2018 09:00:00 16,8 9,5 9 5 16 9 SW 1022,0 41 0,0
23.05.2018 08:00:00 14,9 10,3 11 6 20 11 SW 1021,4 50 0,0
23.05.2018 07:00:00 13,5 9,9 11 6 19 10 SW 1021,0 41 0,0
23.05.2018 06:00:00 13,3 9,2 11 6 17 9 SW 1020,4 50 0,0
23.05.2018 05:00:00 11,1 8,8 12 6 18 10 SW 1020,1 46 0,0
23.05.2018 04:00:00 11,5 8,9 14 8 20 11 SW 1019,8 48 0,0
23.05.2018 03:00:00 12,1 7,6 13 7 19 10 SSW 1019,5 50 0,0
23.05.2018 02:00:00 12,0 7,7 11 6 17 9 SSW 1019,3 50 0,0
23.05.2018 01:00:00 11,3 5,8 6 4 11 6 W 1019,0 50 0,0
23.05.2018 00:00:00 11,5 6,0 10 5 13 7 WSW 1019,0 50 0,0
22.05.2018 23:00:00 11,6 5,7 11 6 16 8 SW 1018,9 50 0,0
22.05.2018 22:00:00 11,2 5,3 11 6 16 8 SSW 1018,9 50 0,0
22.05.2018 21:00:00 13,3 5,7 5 3 15 8 S 1018,9 43 0,0
22.05.2018 20:00:00 15,3 6,0 0 0 12 7 N 1018,7 50 0,0
22.05.2018 19:00:00 16,7 6,8 6 4 16 9 SE 1018,9 50 0,0
22.05.2018 18:00:00 15,9 8,1 11 6 15 8 E 1019,0 50 0,0
22.05.2018 17:00:00 15,4 10,4 7 4 14 8 E 1019,3 50 0,0
22.05.2018 16:00:00 16,6 10,4 6 4 15 8 ENE 1019,5 50 0,0
22.05.2018 15:00:00 17,5 8,9 4 2 10 5 NE 1019,8 50 0,0
22.05.2018 14:00:00 19,3 7,4 4 2 12 6 NNE 1020,1 35 0,0
22.05.2018 13:00:00 18,0 11,3 5 3 19 10 NE 1020,5 36 0,0
22.05.2018 12:00:00 17,7 9,6 5 3 9 5 NE 1020,9 43 0,0
22.05.2018 11:00:00 16,7 10,1 6 3 15 8 ENE 1021,4 46 0,0
22.05.2018 10:00:00 19,1 9,0 4 2 10 5 N 1021,5 42 0,0
22.05.2018 09:00:00 17,3 9,2 4 2 9 5 ENE 1021,7 43 0,0
22.05.2018 08:00:00 19,3 6,1 4 2 19 10 SE 1021,9 50 0,0
22.05.2018 07:00:00 16,6 6,1 12 6 23 13 SSE 1022,2 50 0,0
22.05.2018 06:00:00 13,5 6,8 14 8 25 14 SSE 1022,5 50 0,0
22.05.2018 05:00:00 11,2 6,3 13 7 21 11 SE 1022,8 50 0,0
22.05.2018 04:00:00 10,8 5,3 12 7 18 10 E 1023,1 50 0,0
22.05.2018 03:00:00 10,6 3,6 12 6 16 9 E 1023,4 50 0,0
22.05.2018 02:00:00 10,8 4,3 12 7 20 11 ESE 1023,9 50 0,0
22.05.2018 01:00:00 11,1 3,9 11 6 19 10 ESE 1024,4 50 0,0
22.05.2018 00:00:00 12,0 3,2 11 6 16 9 SE 1024,7 50 0,0
21.05.2018 23:00:00 12,0 2,7 9 5 15 8 SSE 1025,0 50 0,0
21.05.2018 22:00:00 12,3 3,5 10 6 16 9 SSE 1025,3 41 0,0
21.05.2018 21:00:00 13,1 7,1 6 4 10 5 SSE 1025,4 50 0,0
21.05.2018 20:00:00 14,0 7,1 0 0 4 2 N 1025,3 50 0,0
21.05.2018 19:00:00 13,9 9,7 2 1 5 3 N 1025,4 50 0,0
21.05.2018 18:00:00 15,2 10,0 0 0 12 7 N 1026,0 50 0,0
21.05.2018 17:00:00 15,3 8,1 7 4 15 8 ENE 1026,3 50 0,0
21.05.2018 16:00:00 20,0 5,2 8 4 19 10 SSW 1026,9 50 0,0
21.05.2018 15:00:00 19,2 5,6 11 6 24 13 SSW 1027,3 43 0,0
21.05.2018 14:00:00 18,9 6,7 10 6 25 14 SSW 1027,9 42 0,0
21.05.2018 13:00:00 18,7 6,5 16 8 26 14 S 1028,2 39 0,0
21.05.2018 12:00:00 18,3 8,3 8 4 12 7 S 1028,4 37 0,0
21.05.2018 11:00:00 15,9 8,6 5 3 12 7 S 1028,9 50 0,0
21.05.2018 10:00:00 17,2 9,4 3 2 8 5 NW 1028,6 47 0,0
21.05.2018 09:00:00 15,5 8,7 4 2 15 8 W 1028,5 47 0,0
21.05.2018 08:00:00 14,0 8,0 10 5 22 12 W 1028,4 50 0,0
21.05.2018 07:00:00 13,3 7,9 14 8 24 13 WSW 1028,3 50 0,0
21.05.2018 06:00:00 12,0 7,7 16 9 26 14 WSW 1028,1 50 0,0
21.05.2018 05:00:00 11,3 7,6 18 10 28 15 WSW 1027,9 50 0,0
21.05.2018 04:00:00 10,9 7,4 19 10 31 17 SW 1027,9 50 0,0
21.05.2018 03:00:00 10,4 7,1 16 9 28 15 SW 1027,7 50 0,0
21.05.2018 02:00:00 11,3 6,8 16 9 32 17 WSW 1027,6 50 0,0
21.05.2018 01:00:00 10,6 6,9 16 8 31 17 SW 1027,7 50 0,0
21.05.2018 00:00:00 11,7 6,6 21 12 35 19 SW 1027,6 50 0,0
20.05.2018 23:00:00 11,5 6,6 21 12 37 20 SW 1027,6 50 0,0
20.05.2018 22:00:00 10,8 6,9 18 10 25 13 SW 1027,5 50 0,0
20.05.2018 21:00:00 11,2 7,1 13 7 27 14 SSW 1027,3 50 0,0
20.05.2018 20:00:00 12,0 7,3 14 8 24 13 SSW 1026,8 50 0,0
20.05.2018 19:00:00 12,5 7,2 14 8 26 14 SW 1026,9 50 0,0
20.05.2018 18:00:00 13,5 7,0 13 7 27 15 SW 1027,0 50 0,0
20.05.2018 17:00:00 13,9 6,5 17 9 35 19 SW 1027,6 47 0,0
20.05.2018 16:00:00 16,1 5,4 19 10 33 18 SW 1027,6 32 0,0
20.05.2018 15:00:00 16,9 6,7 18 10 29 16 SW 1027,8 41 0,0
20.05.2018 14:00:00 17,2 6,4 18 10 29 16 SW 1027,9 37 0,0
20.05.2018 13:00:00 16,9 7,0 18 10 27 15 WSW 1027,8 38 0,0
20.05.2018 12:00:00 15,5 7,5 15 8 26 14 SW 1028,1 37 0,0
20.05.2018 11:00:00 15,0 7,3 15 8 24 13 WSW 1027,9 45 0,0
20.05.2018 10:00:00 14,5 7,8 14 8 22 12 WSW 1027,7 38 0,0
20.05.2018 09:00:00 13,9 7,9 11 6 23 12 WSW 1027,1 49 0,0
20.05.2018 08:00:00 13,0 7,7 12 6 21 11 WSW 1027,1 50 0,0
20.05.2018 07:00:00 11,5 7,2 14 7 26 14 WSW 1026,8 50 0,0
20.05.2018 06:00:00 10,2 7,1 16 8 26 14 SW 1026,3 50 0,0
20.05.2018 05:00:00 9,5 6,6 17 9 28 15 SW 1025,7 50 0,0
20.05.2018 04:00:00 9,5 6,2 20 11 28 15 SW 1025,3 50 0,0
20.05.2018 03:00:00 9,0 6,3 18 10 25 14 SW 1025,2 50 0,0
20.05.2018 02:00:00 9,1 5,7 18 10 24 13 SW 1024,9 50 0,0
20.05.2018 01:00:00 8,6 5,2 16 9 23 12 WSW 1024,6 50 0,0
20.05.2018 00:00:00 9,0 4,8 17 9 24 13 WSW 1024,4 50 0,0
19.05.2018 23:00:00 9,1 5,7 17 9 26 14 WSW 1024,1 50 0,0
19.05.2018 22:00:00 8,9 5,3 16 9 23 12 WSW 1024,0 50 0,0
19.05.2018 21:00:00 9,5 4,7 12 7 17 9 SW 1023,8 50 0,0
19.05.2018 20:00:00 11,1 3,6 9 5 17 9 WSW 1023,6 50 0,0
19.05.2018 19:00:00 11,7 4,7 10 5 18 10 WSW 1023,7 50 0,0
19.05.2018 18:00:00 13,6 2,8 6 4 17 9 W 1024,0 50 0,0
19.05.2018 17:00:00 14,3 1,2 6 4 15 8 W 1024,0 50 0,0
19.05.2018 16:00:00 15,7 1,0 4 2 8 4 NNE 1023,8 50 0,0
19.05.2018 15:00:00 15,4 2,5 3 2 11 6 N 1024,0 42 0,0
19.05.2018 14:00:00 14,5 4,5 6 4 13 7 NNE 1024,2 48 0,0
19.05.2018 13:00:00 12,8 6,6 6 3 15 8 N 1024,1 34 0,0
19.05.2018 12:00:00 12,7 6,3 7 4 17 9 N 1024,0 39 0,0
19.05.2018 11:00:00 12,3 6,6 8 5 21 11 NNE 1023,9 41 0,0
19.05.2018 10:00:00 12,1 6,4 10 5 24 13 N 1023,5 44 0,0
19.05.2018 09:00:00 10,6 6,0 9 5 22 12 N 1023,0 42 0,0
19.05.2018 08:00:00 10,3 6,1 12 6 23 12 N 1022,5 50 0,0
19.05.2018 07:00:00 8,7 5,6 9 5 19 11 N 1021,7 50 0,0
19.05.2018 06:00:00 8,1 5,4 11 6 25 13 N 1021,3 47 0,0
19.05.2018 05:00:00 7,1 4,7 12 7 27 15 NNE 1020,9 50 0,0
19.05.2018 04:00:00 6,8 4,5 13 7 29 16 N 1020,5 50 0,0
19.05.2018 03:00:00 7,0 4,5 16 8 31 17 N 1020,1 50 0,0
19.05.2018 02:00:00 7,0 4,3 19 10 32 17 NNW 1019,9 50 0,0
19.05.2018 01:00:00 6,9 4,2 19 10 30 16 NNW 1020,0 50 0,0
19.05.2018 00:00:00 7,3 4,3 19 10 30 16 N 1019,7 50 0,0
18.05.2018 23:00:00 7,5 4,1 16 8 28 15 N 1019,7 50 0,0
18.05.2018 22:00:00 7,8 4,0 14 8 33 18 N 1019,6 50 0,0
18.05.2018 21:00:00 8,1 3,7 16 9 32 17 N 1019,3 50 0,0
18.05.2018 20:00:00 8,6 3,6 18 10 39 21 N 1018,9 50 0,0
18.05.2018 19:00:00 8,8 2,8 22 12 42 23 N 1018,6 50 0,0
18.05.2018 18:00:00 9,2 2,3 23 12 44 24 NNE 1018,3 47 0,0
18.05.2018 17:00:00 10,1 3,4 21 11 45 24 N 1018,2 35 0,0
18.05.2018 16:00:00 11,5 4,2 22 12 40 22 N 1018,0 33 0,0
18.05.2018 15:00:00 11,9 4,8 19 10 43 23 N 1017,7 33 0,0
18.05.2018 14:00:00 13,4 4,8 21 11 42 23 N 1017,6 30 0,0
18.05.2018 13:00:00 12,9 5,1 22 12 49 26 N 1017,3 34 0,0
18.05.2018 12:00:00 12,3 5,5 20 11 44 24 N 1016,9 30 0,0
18.05.2018 11:00:00 11,8 5,4 22 12 47 25 N 1016,4 36 0,0
18.05.2018 10:00:00 11,5 5,6 24 13 49 26 N 1015,8 32 0,0
18.05.2018 09:00:00 10,5 5,5 23 12 44 24 N 1015,1 41 0,0
18.05.2018 08:00:00 10,0 5,6 18 10 39 21 NNE 1014,5 35 0,0
18.05.2018 07:00:00 8,9 5,3 16 8 33 18 N 1014,2 38 0,0
18.05.2018 06:00:00 8,4 5,2 17 9 41 22 N 1014,0 34 0,0
18.05.2018 05:00:00 8,3 4,9 17 9 41 22 N 1013,6 37 0,0
18.05.2018 04:00:00 8,5 5,1 19 10 44 24 N 1013,4 46 0,0
18.05.2018 03:00:00 8,5 5,1 19 11 44 24 N 1013,2 37 0,0
18.05.2018 02:00:00 8,1 5,2 17 9 38 20 N 1013,4 36 0,0
18.05.2018 01:00:00 8,0 4,9 17 9 41 22 N 1013,6 45 0,0
18.05.2018 00:00:00 8,1 5,0 18 10 39 21 N 1014,0 42 0,0
17.05.2018 23:00:00 8,0 4,8 19 10 41 22 NNE 1014,1 43 0,0
17.05.2018 22:00:00 7,7 5,2 16 8 36 19 NNE 1014,4 35 0,0
17.05.2018 21:00:00 7,8 5,3 16 9 35 19 NNE 1014,2 41 0,0
17.05.2018 20:00:00 8,0 5,5 16 9 33 18 NNE 1014,0 40 0,0

tt = Température de l'air
td = dewpoint
ff = Vitesse du vent
fx = gusts
dd = Direction du vent
ppp = reduced air pressure
vv = visibility
rr = Quantités de précipitations

stations d'obs. à proximité